Regional Weather Roundup
Issued by NWS

Home | Current Version | Previous Version | Graphics & Text | Print | Product List | Glossary On
Versions: 1 2 3 4 5 6 7 8 9 10 11 12 13 14 15 16 17 18 19 20 21 22 23 24 25 26 27 28 29 30 31 32 33 34 35 36 37 38 39 40 41 42 43 44 45 46 47 48 49 50
000
ASUS43 KMKX 270800
RWRWI

WISCONSIN REGIONAL WEATHER ROUNDUP
NATIONAL WEATHER SERVICE MILWAUKEE/SULLIVAN WI
300 AM CDT THU APR 27 2017

NOTE: "FAIR" INDICATES FEW OR NO CLOUDS BELOW 12,000 FEET WITH NO
SIGNIFICANT WEATHER AND/OR OBSTRUCTIONS TO VISIBILITY.

WIZ001-002-006>008-014>016-023>028-270900-
NORTHWEST WISCONSIN

CITY           SKY/WX    TMP DP  RH WIND       PRES   REMARKS
SUPERIOR ARPT  CLOUDY    27  24  89 CALM      29.59F
ASHLAND        CLOUDY    28  26  92 N7        29.56F FOG     WCI  21
HAYWARD        LGT SNOW  28  26  92 NE8       29.53S FOG     WCI  20
SIREN          CLOUDY    31  27  86 NE3       29.55F
CUMBERLAND     CLOUDY    32  28  86 N7        29.52F WCI  26
RICE LAKE      CLOUDY    32  29  90 N7        29.54S WCI  26
CHETEK         CLOUDY    33  28  83 N9        29.52S WCI  25
LADYSMITH      CLOUDY    32  27  83 N9        29.51F WCI  24
EAU CLAIRE     NOT AVBL
MENOMONIE      CLOUDY    35  31  86 NW10      29.51F WCI  28
NEW RICHMOND   CLOUDY    33  29  85 N7        29.54F WCI  27
OSCEOLA        CLOUDY    33  33 100 N5        29.58S WCI  29
$$

WIZ003>005-009-010-017-018-270900-
NORTH CENTRAL WISCONSIN

CITY           SKY/WX    TMP DP  RH WIND       PRES   REMARKS
MANITOWISH WTR CLOUDY    28  28 100 N8        29.48F FOG     WCI  20
ARBOR VITAE    LGT SNOW  32  30  93 N8        29.46F WCI  25
WOODRUFF       LGT SNOW  32  30  93 N8        29.46F WCI  25
RHINELANDER    CLOUDY    32  30  92 N8        29.44F WCI  25
EAGLE RIVER    FLURRIES  30  28  94 N10       29.46F WCI  21
LAND O LAKES   LGT SNOW  29  27  93 N9        29.49R WCI  21
PHILLIPS       CLOUDY    29  26  90 N9        29.46F WCI  20
TOMAHAWK       CLOUDY    32  29  89 N6        29.46F WCI  26
MEDFORD        CLOUDY    32  31  97 N12       29.44F WCI  23
MERRILL        CLOUDY    34  34  99 N9        29.44F WCI  27
$$

WIZ029-030-035-036-043>047-270900-
CENTRAL WISCONSIN

CITY           SKY/WX    TMP DP  RH WIND       PRES   REMARKS
WAUSAU         CLOUDY    36  34  92 N8        29.41F WCI  30
MOSINEE        CLOUDY    36  36 100 NW12      29.43F WCI  27
MARSHFIELD     LGT RAIN  37  35  92 N10       29.41F WCI  30
STEVENS POINT  LGT RAIN  38  37  94 NW7       29.42F WCI  33
WAUPACA        LGT RAIN  46  43  91 NW6       29.41F
WAUTOMA        LGT RAIN  42  40  92 NW7       29.40
WISC RAPIDS    CLOUDY    41  38  89 N9        29.42F
CAMP DOUGLAS   DRIZZLE   39  37  93 NW10      29.42F WCI  32
$$

WIZ011>013-019>022-031-037>040-048>050-270900-
NORTHEAST WISCONSIN

CITY           SKY/WX    TMP DP  RH WIND       PRES   REMARKS
ANTIGO         CLOUDY    35  34  96 N10       29.41F WCI  27
SHAWANO        DRIZZLE   46  43  88 N6        29.41F
OCONTO         CLOUDY    45  43  95 N6        29.40F
STURGEON BAY   LGT RAIN  44  43  96 N9        29.39F
GREEN BAY      RAIN      50  50 100 W5        29.38F FOG
MANITOWOC      NOT AVBL
APPLETON       RAIN      45  43  93 W6        29.38F
CLINTONVILLE   LGT RAIN  43  41  93 NW7       29.40F
OSHKOSH        RAIN      45  42  89 NW8       29.38F FOG
$$

WIZ032>034-041-042-053>061-270900-
SOUTHWEST WISCONSIN

CITY           SKY/WX    TMP DP  RH WIND       PRES   REMARKS
LA CROSSE      CLOUDY    41  36  82 NW12      29.46F
SPARTA         LGT RAIN  38  37  97 NW9       29.47F WCI  32
VIROQUA        CLOUDY    37  37 100 NW10G16   29.44F WCI  30
BOSCOBEL       LGT RAIN  42  39  89 NW6       29.44F
PRAIRIE DU CHI RAIN      40  37  89 NW9       29.46F WCI  34
PLATTEVILLE    CLOUDY    41  41 100 NW12      29.41F
$$

WIZ056-057-062-063-064-067-068-270900-
SOUTH CENTRAL WISCONSIN

CITY           SKY/WX    TMP DP  RH WIND       PRES   REMARKS
REEDSBURG      DRIZZLE   40  40 100 NW7       29.41F WCI  35
BARABOO/DELLS  DRIZZLE   40  39  96 NW5       29.41F
LONE ROCK      LGT RAIN  43  39  86 NW10      29.43F FOG
MINERAL POINT  RAIN      43  43 100 NW10G16   29.41F
MADISON        RAIN      44  42  93 N10       29.37F FOG
MIDDLETON      CLOUDY    46  45  97 N9        29.39F
WATERTOWN      LGT RAIN  46  46 100 N10       29.37F
MONROE         RAIN      45  43  93 NW12      29.37F
JANESVILLE     LGT RAIN  50  50 100 N7        29.35F
$$

WIZ051-052-058>065-066-070>072-270900-
SOUTHEAST WISCONSIN

CITY           SKY/WX    TMP DP  RH WIND       PRES   REMARKS
MILWAUKEE      LGT RAIN  55  54  96 NE6       29.34F FOG
WAUKESHA       RAIN      50  50 100 NW9       29.36F
MILWAUKEE/TIMM RAIN      52  50  93 N6        29.36F
RACINE         LGT RAIN  54  53  97 SE6       29.36F FOG
KENOSHA        LGT RAIN  56  55  97 SE9       29.33F FOG
FOND DU LAC    RAIN      46  43  89 NW12      29.38F FOG
SHEBOYGAN      LGT RAIN  51  49  92 NW5       29.36F FOG
WEST BEND      RAIN      48  48 100 N7        29.37F
JUNEAU         RAIN      45  44  97 NW3       29.39F
$$

LSZ147-162-270900-
LAKE SUPERIOR

STATION/POSITION TIME  TEMP    WIND        PRES    WAVE
                       AIR SEA DIR/SP/G            HT/PER
                 (UTC) (F)     (DEG/KT/KT) (MB)    (FT/S)
DEVILS ISLAND    0700   27      10/ 12/ 13 1003.3F
SAXON HARBOR     0730   31      20/ 12/ 14 1001.4F
$$

LMZ867-665-643>646-270900-
LAKE MICHIGAN

STATION/POSITION TIME  TEMP    WIND        PRES    WAVE
                       AIR SEA DIR/SP/G            HT/PER
                 (UTC) (F)     (DEG/KT/KT) (MB)    (FT/S)
CHAMBERS ISLAND  0740   42     340/  5/  6  995.6F
N MID LAKE BUOY  0650   40 37  160/  4/  4  997.6R   1/ 5
NORTHPORT PIER   0740   40     320/  9/ 12  995.9F
KEWAUNEE LAKESHO 0730   52     340/  1/  2  994.8F
SHEBOYGAN LAKESH 0700   51     330/  4/  5  995.1F
PORT WASHINGTON  0740   53     360/  3/ 10  995.3F
MILWAUKEE LAKESH 0730   49      50/  4/  5   N/A
S MID LAKE BUOY  0650   47 42   90/  8/  8  996.0F   0
KENOSHA   LAKESH 0700   52     210/  3/  6  994.9
$$

TC  - TEMPERATURE IN CELSIUS
VSB - VISIBILITY IN STATUTE MILES
WCI - WIND CHILL INDEX
HX  - HEAT INDEX




USA.gov is the U.S. government's official web portal to all federal, state and local government web resources and services.